This is the latest recevied weather packets stored in our database for station/object KJ6HT. If no packets are shown the sender has not sent any weather packets the latest 10 day(s).
| Time | Temp. | Humidity | Pressure | Rain* | Wind** | Luminosity | Snow |
|---|---|---|---|---|---|---|---|
| 1777612530 | 16.11° C | 82% | 1012.1 hPa | 0 mm | - | - | - |
| 1777611691 | 16.11° C | 81% | 1011.9 hPa | 0 mm | - | - | - |
| 1777610745 | 16.67° C | 80% | 1011.9 hPa | 0 mm | - | - | - |
| 1777609810 | 16.67° C | 79% | 1011.7 hPa | 0 mm | - | - | - |
| 1777608974 | 17.22° C | 79% | 1011.4 hPa | 0 mm | - | - | - |
| 1777608041 | 17.22° C | 77% | 1011.2 hPa | 0 mm | - | - | - |
| 1777607179 | 17.22° C | 77% | 1011.1 hPa | 0 mm | - | - | - |
| 1777606230 | 17.78° C | 75% | 1010.8 hPa | 0 mm | - | - | - |
| 1777605385 | 17.78° C | 75% | 1010.5 hPa | 0 mm | - | - | - |
| 1777604447 | 18.33° C | 73% | 1010.3 hPa | 0 mm | - | - | - |
| 1777603585 | 18.33° C | 72% | 1010.1 hPa | 0 mm | - | - | - |
| 1777602657 | 18.89° C | 71% | 1009.7 hPa | 0 mm | - | - | - |
| 1777601787 | 18.89° C | 70% | 1009.6 hPa | 0 mm | - | - | - |
| 1777600837 | 19.44° C | 68% | 1009.3 hPa | 0 mm | - | - | - |
| 1777599988 | 20° C | 67% | 1009.3 hPa | 0 mm | - | - | - |
| 1777599045 | 20° C | 66% | 1009.1 hPa | 0 mm | - | - | - |
| 1777598192 | 20.56° C | 64% | 1009 hPa | 0 mm | - | - | - |
| 1777597243 | 21.67° C | 61% | 1008.9 hPa | 0 mm | - | - | - |
| 1777596385 | 21.67° C | 60% | 1008.9 hPa | 0 mm | - | - | - |
| 1777595446 | 22.22° C | 59% | 1008.8 hPa | 0 mm | - | - | - |
| 1777594593 | 22.78° C | 57% | 1008.6 hPa | 0 mm | - | - | - |
| 1777593654 | 22.78° C | 56% | 1008.6 hPa | 0 mm | - | - | - |
| 1777592709 | 23.33° C | 54% | 1008.5 hPa | 0 mm | - | - | - |
| 1777591851 | 23.33° C | 54% | 1008.5 hPa | 0 mm | - | - | - |
| 1777590907 | 23.89° C | 53% | 1008.4 hPa | 0 mm | - | - | - |
* Rain latest hour (hover to see other rain measurements)
** Current wind speed in m/s (hover to see current wind gust speed)